Weather History for ENEK - February, 2013

Change the Weather History Date:

Friday, February 15, 2013

  Actual Average Record
Temperature  
Mean Temperature 39 °F -  
Max Temperature 41 °F 42 °F 48 °F (1998)
Min Temperature 37 °F 38 °F 35 °F (2005)
Degree Days  
Heating Degree Days 26    
Moisture  
Dew Point 37 °F    
Average Humidity 96    
Maximum Humidity 100    
Minimum Humidity 83    
Precipitation  
Precipitation 0.00 in - - ()
Sea Level Pressure  
Sea Level Pressure 29.95 in    
Wind  
Wind Speed 19 mph ()    
Max Wind Speed 25 mph    
Max Gust Speed -    
Visibility 3.3 miles    
Events Rain    
Averages and records for this station are not official NWS values.
T = Trace of Precipitation, MM = Missing Value Source: Averaged Metar Reports

Daily Weather History Graph

Daily Weather History Graph

Search for Another Location

Airport or City:

Trip Planner

Search our weather history database for the weather conditions in past years. The results will help you decide how hot, cold, wet, or windy it might be!

Date:

Astronomy

Feb. 15, 2013 Rise Set
Actual Time 8:13 AM CET 5:49 PM CET
Civil Twilight 7:34 AM CET 6:28 PM CET
Nautical Twilight 6:50 AM CET 7:13 PM CET
Astronomical Twilight 6:06 AM CET 7:56 PM CET
Moon 9:29 AM CET (2/15) No Moon Set
Length of Visible Light 10h 54m
Length of Day
9h 35m
Waxing Crescent, 28% of the Moon is Illuminated
Feb 15
Waxing Crescent
Feb 17
First Quarter
Feb 25
Full
Mar 4
Last Quarter
Mar 11
New

Hourly Weather History & Observations

Time (CET) Temp. Windchill Dew Point Humidity Pressure Visibility Wind Dir Wind Speed Gust Speed Precip Events Conditions
12:20 AM 37.4 °F 25.9 °F 37.4 °F 100% 29.83 in 6.2 mi SSE 25.3 mph - N/A Rain Light Rain
12:50 AM 37.4 °F 25.9 °F 37.4 °F 100% 29.83 in 6.2 mi SSE 25.3 mph - N/A Rain Light Rain
1:00 AM 37 °F - 35 °F 87% 29.85 in 6 mi SSE 17.9 mph - - Rain Light Rain
1:20 AM 37.4 °F 25.9 °F 35.6 °F 93% 29.83 in 6.2 mi SSE 25.3 mph - N/A   Mostly Cloudy
1:50 AM 37.4 °F 25.9 °F 35.6 °F 93% 29.83 in 6.2 mi SSE 25.3 mph - N/A Rain Light Rain
2:20 AM 37.4 °F 26.4 °F 37.4 °F 100% 29.83 in 6.2 mi SSE 23.0 mph - N/A   Mostly Cloudy
2:50 AM 37.4 °F 26.1 °F 37.4 °F 100% 29.83 in 6.2 mi SSE 24.2 mph - N/A Rain Light Rain
3:20 AM 37.4 °F 26.1 °F 35.6 °F 93% 29.83 in 6.2 mi SSE 24.2 mph - N/A   Mostly Cloudy
3:50 AM 37.4 °F 26.4 °F 35.6 °F 93% 29.86 in 6.2 mi SSE 23.0 mph - N/A   Mostly Cloudy
4:20 AM 37.4 °F 26.4 °F 35.6 °F 93% 29.86 in 6.2 mi SSE 23.0 mph - N/A   Mostly Cloudy
4:50 AM 37.4 °F 26.4 °F 35.6 °F 93% 29.86 in 5.0 mi SSE 23.0 mph - N/A Rain Light Rain
5:20 AM 37.4 °F 26.1 °F 35.6 °F 93% 29.86 in 4.3 mi SSE 24.2 mph - N/A Rain Light Rain
5:50 AM 37.4 °F 26.4 °F 35.6 °F 93% 29.86 in 6.2 mi SSE 23.0 mph - N/A   Mostly Cloudy
6:20 AM 37.4 °F 26.6 °F 35.6 °F 93% 29.86 in 6.2 mi SSE 21.9 mph - N/A Rain Light Rain
6:50 AM 37.4 °F 26.4 °F 35.6 °F 93% 29.89 in 6.2 mi SSE 23.0 mph - N/A Rain Light Rain
7:00 AM 38 °F - 35 °F 83% 29.90 in 6 mi SE 17.9 mph - - Rain Light Rain
7:20 AM 37.4 °F 26.1 °F 35.6 °F 93% 29.89 in 6.2 mi SE 24.2 mph - N/A   Mostly Cloudy
7:50 AM 37.4 °F 26.4 °F 35.6 °F 93% 29.89 in 4.3 mi SE 23.0 mph - N/A   Mostly Cloudy
8:20 AM 37.4 °F 26.4 °F 35.6 °F 93% 29.89 in 2.5 mi SE 23.0 mph - N/A   Mostly Cloudy
8:50 AM 37.4 °F 26.1 °F 35.6 °F 93% 29.92 in 1.9 mi SSE 24.2 mph - N/A Rain Light Rain
9:20 AM 37.4 °F 26.4 °F 35.6 °F 93% 29.92 in 1.9 mi SSE 23.0 mph - N/A Rain Light Rain
9:50 AM 37.4 °F 26.4 °F 35.6 °F 93% 29.92 in 1.9 mi SSE 23.0 mph - N/A Rain Light Rain
10:20 AM 37.4 °F 26.4 °F 35.6 °F 93% 29.92 in 1.9 mi SSE 23.0 mph - N/A Rain Light Rain
10:50 AM 37.4 °F 26.4 °F 35.6 °F 93% 29.92 in 1.9 mi SSE 23.0 mph - N/A Rain Light Rain
11:20 AM 37.4 °F 26.4 °F 37.4 °F 100% 29.95 in 1.9 mi SE 23.0 mph - N/A Rain Light Rain
11:50 AM 37.4 °F 26.1 °F 35.6 °F 93% 29.95 in 1.9 mi SE 24.2 mph - N/A   Mostly Cloudy
12:20 PM 37.4 °F 26.4 °F 37.4 °F 100% 29.95 in 1.6 mi SSE 23.0 mph - N/A   Mostly Cloudy
12:50 PM 37.4 °F 26.6 °F 37.4 °F 100% 29.95 in 1.2 mi SSE 21.9 mph - N/A   Light Drizzle
1:00 PM 37 °F - 36 °F 93% 29.98 in 1 mi SSE 17.9 mph - - Rain Light Drizzle
1:20 PM 37.4 °F 27.5 °F 37.4 °F 100% 29.98 in 1.2 mi SSE 18.4 mph - N/A   Light Drizzle
1:50 PM 37.4 °F 28.2 °F 37.4 °F 100% 29.98 in 1.2 mi SSE 16.1 mph - N/A   Light Drizzle
2:20 PM 37.4 °F 27.8 °F 37.4 °F 100% 29.98 in 1.2 mi SSE 17.3 mph - N/A   Light Drizzle
2:50 PM 37.4 °F 27.8 °F 37.4 °F 100% 29.98 in 1.9 mi SSE 17.3 mph - N/A   Mostly Cloudy
3:20 PM 37.4 °F 27.8 °F 37.4 °F 100% 29.98 in 1.6 mi SSE 17.3 mph - N/A   Mostly Cloudy
3:50 PM 37.4 °F 28.5 °F 37.4 °F 100% 29.98 in 1.6 mi SSE 15.0 mph - N/A   Mostly Cloudy
4:20 PM 37.4 °F 29.3 °F 37.4 °F 100% 30.01 in 1.6 mi SSE 12.7 mph - N/A   Mostly Cloudy
4:50 PM 37.4 °F 29.3 °F 37.4 °F 100% 30.01 in 1.9 mi SSE 12.7 mph - N/A   Mostly Cloudy
5:20 PM 39.2 °F 31.6 °F 39.2 °F 100% 30.01 in 1.9 mi SSE 12.7 mph - N/A   Mostly Cloudy
5:50 PM 39.2 °F 31.6 °F 39.2 °F 100% 30.01 in 1.6 mi SSE 12.7 mph - N/A   Mostly Cloudy
6:20 PM 39.2 °F 32.5 °F 39.2 °F 100% 30.04 in 1.9 mi SSE 10.4 mph - N/A   Mostly Cloudy
6:50 PM 39.2 °F 32.5 °F 39.2 °F 100% 30.04 in 1.9 mi SSE 10.4 mph - N/A   Mostly Cloudy
7:00 PM 40 °F - 39 °F 95% 30.07 in 1 mi SSE 6.7 mph - -   Mist
7:20 PM 39.2 °F 32.0 °F 39.2 °F 100% 30.04 in 1.9 mi SSE 11.5 mph - N/A   Overcast
7:50 PM 41.0 °F 34.3 °F 41.0 °F 100% 30.04 in 1.9 mi SSE 11.5 mph - N/A   Overcast
8:20 PM 41.0 °F 34.7 °F 41.0 °F 100% 30.06 in 2.2 mi South 10.4 mph - N/A   Overcast
8:50 PM 41.0 °F 35.2 °F 39.2 °F 93% 30.06 in 2.8 mi SSE 9.2 mph - N/A   Overcast
9:50 PM 41.0 °F 35.2 °F 41.0 °F 100% 30.06 in 2.5 mi SSE 9.2 mph - N/A   Overcast
10:20 PM 41.0 °F 35.2 °F 39.2 °F 93% 30.09 in 2.5 mi SSE 9.2 mph - N/A   Overcast
10:50 PM 41.0 °F 34.7 °F 39.2 °F 93% 30.09 in 2.8 mi SSE 10.4 mph - N/A   Mostly Cloudy
11:20 PM 39.2 °F 33.6 °F 39.2 °F 100% 30.09 in 2.8 mi South 8.1 mph - N/A   Mostly Cloudy
11:50 PM 39.2 °F 35.0 °F 39.2 °F 100% 30.09 in 3.1 mi SSE 5.8 mph - N/A   Mostly Cloudy